Regional Weather Roundup
Issued by NWS Upton, NY

Home | Current Version | Previous Version | Text Only | Print | Product List | Glossary On
Versions: 1 2 3 4 5 6 7 8 9 10 11 12 13 14 15 16 17 18 19 20 21 22 23 24 25 26 27 28 29 30 31
000
ASUS41 KOKX 252105
RWROKX

REGIONAL WEATHER ROUNDUP
NATIONAL WEATHER SERVICE NEW YORK NY
500 PM EDT THU AUG 25 2016

NOTE: "FAIR" INDICATES FEW OR NO CLOUDS BELOW 12,000 FEET WITH NO
SIGNIFICANT WEATHER AND/OR OBSTRUCTIONS TO VISIBILITY.

NYZ071-072-176-178-NJZ106-104-252200-
NEW YORK CITY METRO AREA

CITY           SKY/WX    TMP DP  RH WIND       PRES   REMARKS
Central Park     N/A     82  68  61 MISG        N/A
LaGuardia APRT CLOUDY    82  67  60 S16G26    30.00F
Kennedy INTL   PTSUNNY   78  73  84 S22G32    30.03F
Newark/Liberty LGT RAIN  84  69  60 SW10G17   30.00R
Bronx Bot Gard   N/A     79  66  65 S5        30.01R
Wall St Helipt CLOUDY    81  70  69 S12       30.02S
Teterboro      LGT RAIN  81  68  64 S5        30.00R
$$

NYZ177-179-078>081-252200-
LONG ISLAND NEW YORK

CITY           SKY/WX    TMP DP  RH WIND       PRES   REMARKS
Farmingdale    MOSUNNY   80  67  64 S20       30.04S
MacArthur/ISP  PTSUNNY   78  66  66 S16       30.03F
Shirley        SUNNY     79  67  66 S16       30.05S
Riverhead      NOT AVBL
Westhampton    SUNNY     77  66  68 SW13      30.06S
Southampton      N/A     77  70  78 SW9       30.00F
Bridgehampton    N/A     81  70  69 SW2       30.03F
East Hampton   FAIR      77  66  70 SW10      30.04S
Montauk          N/A     77  67  71 S9        30.05F
$$

NYZ052-065-067-252200-
HUDSON VALLEY

CITY           SKY/WX    TMP DP  RH WIND       PRES   REMARKS
White Plains   CLOUDY    79  65  62 S7        30.02S
Newburgh       CLOUDY    79  72  78 SW7       30.02S
Montgomery     PTSUNNY   83  72  69 SW12      29.99F
Poughkeepsie   CLOUDY    78  69  73 CALM      29.98F
Albany         CLOUDY    76  72  87 SE3       29.96F
$$

NJZ001-105-106-008-010-013-015-019>022-104-252200-
NEW JERSEY

CITY           SKY/WX    TMP DP  RH WIND       PRES   REMARKS
Newark/Liberty LGT RAIN  84  69  60 SW10G17   30.00R
Teterboro      LGT RAIN  81  68  64 S5        30.00R
Caldwell       CLOUDY    82  70  66 SW3       30.01R
Morristown     CLOUDY    82  70  65 W7        30.01S
Somerville     CLOUDY    83  71  67 CALM      29.99S
Linden         CLOUDY    85  66  52 W10G17    30.02R
Sussex         PTSUNNY   80  73  79 SW5       30.01F
Abdover          N/A     80  71  74 VRB5      30.02F
Trenton        CLOUDY    84  69  60 SW10      30.01S
Millville      CLOUDY    82  72  71 S8        30.05S
Atlantic City  CLOUDY    83  64  52 S13       30.05S
Wrightstown    PTSUNNY   84  71  64 SW15      30.00S
Toms River     CLOUDY    84  70  62 S13       30.03S
Belmar         CLOUDY    82  71  69 S8        30.03S
$$

PAZ047>061-062-071-252200-
EASTERN PENNSYLVANIA

CITY           SKY/WX    TMP DP  RH WIND       PRES   REMARKS
Philadelphia   CLOUDY    85  72  65 SW10      30.03S HX  91
Allentown      CLOUDY    82  71  69 SW8       30.02S
Scranton       CLOUDY    76  72  87 SW7       30.03S
$$

CTZ002-004>006-009-010-012-RIZ004-006-007-MAZ004-011-015-252200-
SOUTHERN NEW ENGLAND
 IN CT

CITY           SKY/WX    TMP DP  RH WIND       PRES   REMARKS
Bradley INTL   PTSUNNY   82  64  54 S14G23    30.00S
Hartford       MOSUNNY   85  65  51 SW16G23   29.99F
Danbury        CLOUDY    78  65  63 S9        30.03F
Wtrbury/Oxford MOSUNNY   79  63  57 S12G20    30.06F
Bridgeport     MOSUNNY   83  67  58 S15       30.02S
Meriden        MOSUNNY   83  65  54 S16G23    30.01S
New Haven      MOSUNNY   81  68  64 SW8       30.03S
Chester        FAIR      79  66  65 S9        30.04S
Groton         SUNNY     78  68  71 SW10      30.03F
Wilimantic     MOSUNNY   82  66  58 S13       30.02S

 IN RI

CITY           SKY/WX    TMP DP  RH WIND       PRES   REMARKS
Providence     PTSUNNY   81  64  56 S16G23    30.02F
Block Island   MOSUNNY   78  67  68 SW13      30.05F
Westerly       SUNNY     79  65  62 S14G21    30.05F
 IN MA

CITY           SKY/WX    TMP DP  RH WIND       PRES   REMARKS
Boston         PTSUNNY   87  62  43 SW21      29.97S
Worcester      CLOUDY    78  64  61 SW10      30.03S
Westfield      CLOUDY    82  67  60 S12       29.98S
Provincetown   PTSUNNY   77  66  68 SW16      30.02F
Nantucket      PTSUNNY   73  67  81 S13       30.06F
$$

ANZ330-335-338-340-345-350-353-355-252200-
COASTAL MARINE OBSERVATIONS


STATION/POSITION TIME  SKY/WX   TEMP    WIND        PRES    VSBY  WAVE
                                AIR SEA DIR/SP/G                  HT/PER
                 (UTC)          (F)     (DEG/KT/KT) (MB)    (MI)  (FT/S)
NY HARB ENTRANCE 2050            76 74  200/ 19/ 23 1016.3          4/ 5
20S FIRE ISLAND  2050            77 75  210/ 17/ 21 1016.7          3/10
GREAT SOUTH BAY  2030            76 79  190/ 12/ 17   N/A
23 SSW MONTAUK P 2050            76 74  220/ 16/ 17 1017.7          3/10
15 E BARNEGAT LI 2000               76                N/A           3/10
HUDSON CANYON    2050            78 78              1017.9          3/ 9
KINGS POINT      2000            78 77              1016.0
EXECUTION ROCKS  2000            80     170/ 16/ 19   N/A
CENTRAL LI SOUND 2000            77 75  200/ 14/ 16   N/A           2/ 3
EASTERN LI SOUND 2000            74 71  200/ 10/ 12   N/A
ROBBINS REEF     2000            77     160/ 17/ 19 1015.4
$$


>>>>>>>>>>>>>>>>>>>>>>>>>>>> KEY <<<<<<<<<<<<<<<<<<<<<<<<<<<
>                                                          <
>     SKY/WX - Sky Condition/Present Weather               <
>     TMP    - Temperature in Fahrenheit                   <
>     DP     - Dew Point in Fahrenheit                     <
>     RH     - Relative Humidity in Percent                <
>     WIND   - Direction (from) and Speed in MPH           <
>     PRES   - Mean Sea Level Pressure (inches of Hg)      <
>     WCI    - Wind Chill Index                            <
>     VSB    - VISIBILITY IN MILES                         <
>     HX     - HEAT INDEX                                  <
>     TC     - TEMPERATURE IN CELSIUS                      <
>     VRB    - VARIABLE WIND DIRECTION                     <
>                                                          <
>>>>>>>>>>>>>>>>>>>>>>>>>>>> KEY <<<<<<<<<<<<<<<<<<<<<<<<<<<




USA.gov is the U.S. government's official web portal to all federal, state and local government web resources and services.